Waarnemingen

Advertentie
Mijn weer
Calvi, Frankrijk (7754): temperatuur & dauwpunt: 13.04.2019 06:00:00 - 19.04.2019 06:00:00 (CEST)Calvi, Frankrijk (7754): temperatuur 5cm: 13.04.2019 06:00:00 - 19.04.2019 06:00:00 (CEST)Calvi, Frankrijk (7754): windsnelheid & windstoten: 13.04.2019 06:00:00 - 19.04.2019 06:00:00 (CEST)Calvi, Frankrijk (7754): windrichting: 13.04.2019 06:00:00 - 19.04.2019 06:00:00 (CEST)Calvi, Frankrijk (7754): luchtdruk: 13.04.2019 06:00:00 - 19.04.2019 06:00:00 (CEST)Calvi, Frankrijk (7754): zicht: 13.04.2019 06:00:00 - 19.04.2019 06:00:00 (CEST)Calvi, Frankrijk (7754): neerslag: 13.04.2019 06:00:00 - 19.04.2019 06:00:00 (CEST)
Datum & Tijd tt [°C] td [°C] tt 5cm [°C] ff [km/u] ff [kn] fx [km/u] fx [kn] dd ppp [hPa] vv [km] rr [mm]
19.04.2019 06:00:00 8,2 4,2 7,0 9 5 16 9 Z 1022,9 35 0,0
19.04.2019 05:00:00 10,0 4,8 7,5 11 6 16 9 Z 1022,4 47 0,0
19.04.2019 04:00:00 9,1 5,1 8,1 8 4 14 8 Z 1022,0 34 0,0
19.04.2019 03:00:00 9,8 5,8 8,7 5 3 13 7 Z 1021,8 40 0,0
19.04.2019 02:00:00 10,1 6,4 9,3 9 5 15 8 ZZW 1021,8 29 0,0
19.04.2019 01:00:00 11,1 7,8 9,3 10 6 14 8 Z 1021,8 29 0,0
19.04.2019 00:00:00 10,8 8,2 9,8 6 3 14 7 Z 1022,1 24 0,0
18.04.2019 23:00:00 11,9 8,9 11,0 5 3 14 8 ZZW 1022,1 23 0,0
18.04.2019 22:00:00 12,5 9,9 11,9 6 3 8 5 Z 1021,7 27 0,0
18.04.2019 21:00:00 14,8 10,2 13,3 3 2 10 5 O 1020,9 27 0,0
18.04.2019 20:00:00 16,6 10,4 15,9 8 5 12 6 O 1019,7 44 0,0
18.04.2019 19:00:00 20,1 9,6 21,2 6 3 21 12 NNW 1018,8 49 0,0
18.04.2019 18:00:00 21,2 10,1 25,0 14 8 20 11 N 1018,4 47 0,0
18.04.2019 17:00:00 21,5 10,3 26,5 11 6 21 11 N 1018,6 36 0,0
18.04.2019 16:00:00 21,2 10,7 26,6 13 7 22 12 N 1018,7 20 0,0
18.04.2019 15:00:00 20,9 10,4 24,1 11 6 23 12 N 1018,9 19 0,0
18.04.2019 14:00:00 20,1 9,6 23,5 16 8 25 14 N 1019,4 50 0,0
18.04.2019 13:00:00 19,6 10,8 23,9 16 9 22 12 NNO 1019,8 55 0,0
18.04.2019 12:00:00 19,3 10,3 23,1 12 6 20 11 NNO 1020,3 56 0,0
18.04.2019 11:00:00 18,5 10,6 21,0 10 6 15 8 NNO 1020,6 45 0,0
18.04.2019 10:00:00 18,0 10,4 19,3 0 0 8 4 N 1020,3 40 0,0
18.04.2019 09:00:00 15,6 9,9 14,1 0 0 5 3 N 1020,0 22 0,0
18.04.2019 08:00:00 11,2 9,5 7,4 3 1 10 6 ZZW 1019,9 49 0,0
18.04.2019 07:00:00 7,9 6,8 6,3 7 4 9 5 Z 1019,7 15 0,0
18.04.2019 06:00:00 8,0 6,5 7,1 5 3 14 7 ZZO 1019,6 28 0,0
18.04.2019 05:00:00 8,5 7,1 7,8 11 6 17 9 Z 1020,0 24 0,0
18.04.2019 04:00:00 8,6 7,8 6,9 10 5 15 8 Z 1020,4 11 0,0
18.04.2019 03:00:00 8,7 7,5 7,9 7 4 14 8 ZZW 1020,6 22 0,2
18.04.2019 02:00:00 9,2 7,8 8,5 8 5 18 10 Z 1021,2 24 0,0
18.04.2019 01:00:00 9,3 8,2 7,7 8 5 13 7 Z 1021,5 19 0,0
18.04.2019 00:00:00 8,9 7,7 8,0 7 4 10 5 Z 1021,1 11 0,0
17.04.2019 23:00:00 9,9 8,5 9,0 4 2 13 7 Z 1021,0 18 0,0
17.04.2019 22:00:00 10,0 8,1 9,2 5 3 10 5 ZZW 1020,8 22 0,0
17.04.2019 21:00:00 11,7 9,1 10,9 6 3 10 6 Z 1020,5 10 0,0
17.04.2019 20:00:00 14,0 10,0 13,4 2 1 12 6 NW 1020,0 60 0,0
17.04.2019 19:00:00 15,4 10,4 16,5 8 4 16 9 NNW 1020,0 57 0,0
17.04.2019 18:00:00 16,2 10,7 20,1 10 5 19 10 NNW 1020,1 60 0,0
17.04.2019 17:00:00 16,4 11,1 18,8 8 5 16 9 NNW 1020,4 20 0,0
17.04.2019 16:00:00 15,8 11,0 18,5 9 5 21 12 NNW 1020,7 59 0,0
17.04.2019 15:00:00 15,9 10,6 18,6 16 9 27 14 N 1020,9 60 0,0
17.04.2019 14:00:00 16,4 10,3 19,8 14 7 25 13 NNW 1020,5 47 0,0
17.04.2019 13:00:00 16,4 10,5 20,6 15 8 24 13 NNW 1020,9 50 0,0
17.04.2019 12:00:00 16,2 10,3 19,6 13 7 23 12 NNW 1021,0 57 0,0
17.04.2019 11:00:00 16,0 9,6 17,6 15 8 23 12 N 1021,0 60 0,0
17.04.2019 10:00:00 16,1 9,0 18,0 7 4 14 8 N 1020,6 60 0,0
17.04.2019 09:00:00 14,5 9,5 12,7 2 1 9 5 Z 1020,5 53 0,0
17.04.2019 08:00:00 10,1 8,4 5,9 5 3 10 6 Z 1020,7 54 0,0
17.04.2019 07:00:00 6,6 5,4 5,7 6 3 11 6 ZZW 1020,4 56 0,0
17.04.2019 06:00:00 6,8 5,6 5,7 6 3 10 5 Z 1020,4 35 0,0
17.04.2019 05:00:00 7,0 5,5 6,0 3 1 15 8 Z 1020,5 29 0,0
17.04.2019 04:00:00 7,6 6,4 7,0 10 5 14 7 ZZW 1020,4 19 0,0
17.04.2019 03:00:00 8,0 6,8 7,4 9 5 12 7 Z 1020,5 24 0,0
17.04.2019 02:00:00 8,3 7,1 7,7 10 5 13 7 ZZW 1020,9 26 0,0
17.04.2019 01:00:00 8,9 7,5 8,1 6 3 9 5 Z 1020,9 21 0,0
17.04.2019 00:00:00 9,8 8,6 8,9 4 2 10 5 ZZW 1021,1 30 0,0
16.04.2019 23:00:00 9,5 7,9 8,6 4 2 10 6 Z 1021,1 19 0,0
16.04.2019 22:00:00 11,1 9,2 10,2 5 3 8 4 Z 1020,9 28 0,0
16.04.2019 21:00:00 12,4 10,1 11,8 0 0 8 4 N 1020,6 32 0,0
16.04.2019 20:00:00 13,3 9,9 12,9 2 1 5 3 WZW 1020,3 35 0,0
16.04.2019 19:00:00 13,6 9,4 13,9 0 0 9 5 N 1020,2 57 0,0
16.04.2019 18:00:00 13,8 9,6 14,7 5 3 16 8 NNW 1020,2 54 0,0
16.04.2019 17:00:00 14,0 9,6 15,2 10 5 18 10 NNW 1019,9 20 0,0
16.04.2019 16:00:00 14,7 10,5 16,9 11 6 16 9 N 1019,9 55 0,0
16.04.2019 15:00:00 15,8 9,7 17,5 4 2 16 8 NO 1020,0 53 0,0
16.04.2019 14:00:00 15,3 9,6 14,4 3 1 13 7 Z 1020,1 55 0,0
16.04.2019 13:00:00 14,4 9,8 15,2 9 5 18 10 Z 1020,8 30 0,2
16.04.2019 12:00:00 14,1 9,5 15,2 13 7 25 14 Z 1020,8 57 0,0
16.04.2019 11:00:00 15,2 9,3 16,3 9 5 21 11 ZW 1020,0 60 0,0
16.04.2019 10:00:00 14,5 9,7 14,5 2 1 6 4 N 1019,5 56 0,0
16.04.2019 09:00:00 13,5 9,5 12,7 4 2 9 5 ZW 1019,5 55 0,0
16.04.2019 08:00:00 11,8 9,0 9,8 6 4 9 5 Z 1019,3 42 0,0
16.04.2019 07:00:00 10,0 8,1 9,2 5 3 11 6 Z 1018,8 30 0,0
16.04.2019 06:00:00 9,6 7,5 8,7 5 3 11 6 ZZW 1018,4 32 0,0
16.04.2019 05:00:00 9,7 7,5 8,5 7 4 11 6 Z 1018,5 42 0,0
16.04.2019 04:00:00 9,1 6,9 8,0 7 4 13 7 Z 1018,6 39 0,0
16.04.2019 03:00:00 9,0 7,1 7,9 11 6 15 8 Z 1018,5 33 0,0
16.04.2019 02:00:00 8,7 7,0 8,1 5 3 13 7 Z 1018,7 28 0,0
16.04.2019 01:00:00 9,2 7,5 8,5 10 5 12 7 Z 1018,9 28 0,0
16.04.2019 00:00:00 9,1 7,0 8,4 6 3 8 5 ZZW 1019,2 19 0,0
15.04.2019 23:00:00 9,8 7,6 8,7 3 2 10 5 Z 1019,0 19 0,0
15.04.2019 22:00:00 10,7 7,6 9,7 2 1 12 7 Z 1018,9 23 0,0
15.04.2019 21:00:00 11,6 7,9 10,8 8 4 12 6 Z 1018,4 13 0,0
15.04.2019 20:00:00 14,4 7,2 13,0 4 2 17 9 N 1017,8 55 0,0
15.04.2019 19:00:00 16,4 6,8 17,1 11 6 23 12 N 1017,4 60 0,0
15.04.2019 18:00:00 17,4 7,4 19,0 9 5 29 16 NNO 1017,4 54 0,0
15.04.2019 17:00:00 17,3 9,5 18,1 11 6 35 19 N 1017,1 47 0,0
15.04.2019 16:00:00 17,2 9,4 21,0 16 9 34 18 NNW 1017,2 46 0,0
15.04.2019 15:00:00 17,2 9,9 20,2 23 12 40 21 N 1017,4 31 0,0
15.04.2019 14:00:00 17,3 9,2 18,9 22 12 39 21 N 1017,5 29 0,0
15.04.2019 13:00:00 17,3 9,0 17,9 23 12 37 20 N 1017,6 20 0,0
15.04.2019 12:00:00 16,3 8,5 17,5 22 12 37 20 N 1017,8 33 0,0
15.04.2019 11:00:00 14,8 8,3 14,6 26 14 36 19 N 1017,7 37 0,0
15.04.2019 10:00:00 14,9 7,7 14,2 16 9 41 22 NNO 1017,0 33 0,0
15.04.2019 09:00:00 13,5 8,3 11,5 28 15 41 22 N 1016,4 31 0,0
15.04.2019 08:00:00 12,0 8,7 8,4 17 9 27 14 NNO 1016,3 31 0,0
15.04.2019 07:00:00 9,7 7,6 8,3 8 4 16 9 NNO 1015,8 37 0,0
15.04.2019 06:00:00 10,4 8,3 9,5 13 7 29 16 NNO 1015,4 44 0,4
15.04.2019 05:00:00 10,3 8,6 9,5 10 5 16 8 N 1015,2 22 0,2
15.04.2019 04:00:00 10,2 8,8 9,3 13 7 23 12 N 1015,1 7 1,1
15.04.2019 03:00:00 9,8 8,6 8,9 7 4 14 8 NNW 1014,7 3,4 1,0
15.04.2019 02:00:00 9,4 8,0 8,7 4 2 8 4 WZW 1014,9 6 1,4
15.04.2019 01:00:00 9,1 7,4 8,6 3 2 28 15 WNW 1015,0 32 2,2
15.04.2019 00:00:00 10,1 7,9 9,5 21 12 34 18 NO 1014,3 3,5 0,4
14.04.2019 23:00:00 11,9 7,6 11,4 13 7 23 12 N 1013,8 54 0,0
14.04.2019 22:00:00 11,3 8,3 9,5 8 4 15 8 NNO 1013,6 44 0,0
14.04.2019 21:00:00 10,3 7,2 9,6 4 2 9 5 W 1012,8 33 0,0
14.04.2019 20:00:00 11,4 7,3 10,6 4 2 22 12 NNW 1012,0 40 0,0
14.04.2019 19:00:00 12,7 7,6 13,2 17 9 26 14 NNO 1011,2 42 0,0
14.04.2019 18:00:00 13,6 8,0 14,5 21 11 36 19 N 1010,8 20 0,0
14.04.2019 17:00:00 14,4 8,6 15,2 21 11 34 18 N 1010,3 51 0,0
14.04.2019 16:00:00 14,2 7,7 16,2 19 10 32 17 N 1010,1 50 0,0
14.04.2019 15:00:00 13,9 7,6 16,6 18 10 38 20 NNW 1009,8 20 0,0
14.04.2019 14:00:00 16,9 2,5 17,8 17 9 39 21 WZW 1008,6 50 0,0
14.04.2019 13:00:00 15,3 2,4 17,5 23 13 44 24 WZW 1008,7 20 0,0
14.04.2019 12:00:00 16,3 5,0 18,7 21 12 49 27 WZW 1008,3 20 0,0
14.04.2019 11:00:00 16,3 6,1 17,0 27 15 42 23 ZW 1008,6 20 0,0
14.04.2019 10:00:00 16,5 4,8 15,9 19 10 38 21 ZZW 1008,7 59 0,0
14.04.2019 09:00:00 15,0 4,7 13,7 22 12 39 21 ZZW 1008,8 60 0,0
14.04.2019 08:00:00 14,1 1,4 12,3 20 11 44 24 ZZW 1008,5 52 0,0
14.04.2019 07:00:00 13,1 1,1 11,7 19 10 39 21 ZZW 1008,6 59 0,0
14.04.2019 06:00:00 12,9 4,1 8,2 14 8 35 19 ZZW 1008,7 52 0,0
14.04.2019 05:00:00 11,2 6,1 7,7 11 6 31 17 ZZO 1009,2 59 0,0
14.04.2019 04:00:00 9,0 6,4 7,7 5 3 11 6 Z 1010,0 26 0,0
14.04.2019 03:00:00 9,7 7,0 8,1 4 2 16 9 N 1010,5 33 0,0
14.04.2019 02:00:00 10,7 7,4 9,3 6 4 22 12 ZZO 1011,1 47 0,0
14.04.2019 01:00:00 13,0 9,1 11,5 14 7 23 12 ZZO 1012,1 49 0,0
14.04.2019 00:00:00 13,1 9,7 10,9 15 8 26 14 Z 1012,7 37 0,0
13.04.2019 23:00:00 11,3 9,7 9,4 14 8 18 10 ZZO 1012,9 25 0,0
13.04.2019 22:00:00 10,1 8,5 9,4 9 5 14 8 ZW 1013,5 13 0,0
13.04.2019 21:00:00 11,4 9,6 10,5 7 4 11 6 Z 1013,1 20 0,0
13.04.2019 20:00:00 13,4 9,6 12,0 0 0 9 5 N 1012,1 45 0,0
13.04.2019 19:00:00 15,1 9,9 16,0 7 4 16 9 N 1012,1 50 0,0
13.04.2019 18:00:00 15,3 10,3 16,4 9 5 20 11 N 1012,1 58 0,0
13.04.2019 17:00:00 16,0 12,0 20,6 16 8 27 15 N 1012,1 51 0,0
13.04.2019 16:00:00 16,3 11,4 22,0 16 9 24 13 N 1012,2 20 0,0
13.04.2019 15:00:00 16,3 10,4 21,2 12 6 20 11 N 1012,7 60 0,0
13.04.2019 14:00:00 16,6 10,9 19,9 14 8 26 14 N 1013,0 58 0,0
13.04.2019 13:00:00 16,6 11,3 16,8 16 9 22 12 N 1013,2 20 0,0
13.04.2019 12:00:00 16,0 9,6 16,6 5 3 11 6 NW 1013,3 58 0,0
13.04.2019 11:00:00 15,4 9,7 14,2 4 2 13 7 Z 1013,2 55 0,0
13.04.2019 10:00:00 12,9 11,1 10,8 10 6 15 8 ZZW 1013,0 55 2,0
13.04.2019 09:00:00 11,4 10,3 10,7 7 4 20 11 ZZW 1013,2 2,6 2,2
13.04.2019 08:00:00 10,9 9,3 9,9 3 1 12 7 Z 1012,3 30 0,0
13.04.2019 07:00:00 10,4 8,8 9,6 10 6 16 8 ZZW 1011,8 42 0,2
13.04.2019 06:00:00 10,5 8,6 9,5 5 3 11 6 Z 1011,8 34 0,0

tt = temperatuur
td = dauwpunt
tt 5cm = temperatuur 5cm
ff = windsnelheid
fx = windstoten
dd = windrichting
ppp = luchtdruk
vv = zicht
rr = neerslag

Weerstations in de omgeving